Weather History for Prairie Du Chien, WI

Change the Weather History Date:

Thursday, February 7, 2013

  Actual Average Record
Temperature  
Mean Temperature 32 °F -  
Max Temperature 35 °F 29 °F 50 °F (1987)
Min Temperature 28 °F 5 °F -22 °F (1977)
Degree Days  
Heating Degree Days 34    
Moisture  
Dew Point 31 °F    
Average Humidity 90    
Maximum Humidity 100    
Minimum Humidity 80    
Precipitation  
Precipitation 0.49 in - - ()
Sea Level Pressure  
Sea Level Pressure 29.99 in    
Wind  
Wind Speed 5 mph (North)    
Max Wind Speed 14 mph    
Max Gust Speed 18 mph    
Visibility 6 miles    
Events Rain , Snow    
Averages and records for this station are not official NWS values.
T = Trace of Precipitation, MM = Missing Value Source: NWS Daily Summary

Daily Weather History Graph

Daily Weather History Graph

Search for Another Location

Airport:

Trip Planner

Search our weather history database for the weather conditions in past years. The results will help you decide how hot, cold, wet, or windy it might be!

Date:

Astronomy

Feb. 07, 2013 Rise Set
Actual Time 7:12 AM CST 5:25 PM CST
Civil Twilight 6:42 AM CST 5:55 PM CST
Nautical Twilight 6:09 AM CST 6:28 PM CST
Astronomical Twilight 5:36 AM CST 7:01 PM CST
Moon 4:54 AM CST (2/7) 2:48 PM CST (2/7)
Length of Visible Light 11h 12m
Length of Day
10h 13m
Waning Crescent, 9% of the Moon is Illuminated
Feb 7
Waning Crescent
Feb 10
New
Feb 17
First Quarter
Feb 25
Full
Mar 4
Last Quarter

Hourly Weather History & Observations

Time (CST) Temp. Windchill Dew Point Humidity Pressure Visibility Wind Dir Wind Speed Gust Speed Precip Events Conditions
12:35 AM 35.6 °F 31.7 °F 32.0 °F 87% 30.00 in 10.0 mi East 4.6 mph - 0.02 in   Overcast
12:55 AM 35.6 °F 31.7 °F 32.0 °F 87% 30.00 in 7.0 mi East 4.6 mph - 0.02 in   Light Drizzle
1:15 AM 35.6 °F 31.7 °F 32.0 °F 87% 29.99 in 10.0 mi East 4.6 mph - 0.01 in   Overcast
1:35 AM 35.6 °F 30.7 °F 32.0 °F 87% 29.98 in 10.0 mi East 5.8 mph - 0.01 in   Overcast
1:55 AM 35.6 °F 30.7 °F 32.0 °F 87% 29.98 in 10.0 mi ESE 5.8 mph - 0.02 in   Overcast
2:15 AM 35.6 °F 29.9 °F 32.0 °F 87% 29.98 in 10.0 mi ESE 6.9 mph - N/A   Overcast
2:35 AM 35.6 °F 30.7 °F 30.2 °F 81% 29.97 in 10.0 mi ESE 5.8 mph - 0.01 in   Mostly Cloudy
2:55 AM 35.6 °F 31.7 °F 30.2 °F 81% 29.96 in 7.0 mi ESE 4.6 mph - 0.01 in   Mostly Cloudy
3:15 AM 35.6 °F 31.7 °F 30.2 °F 81% 29.96 in 7.0 mi East 4.6 mph - N/A   Scattered Clouds
3:35 AM 35.6 °F 31.7 °F 30.2 °F 81% 29.96 in 7.0 mi East 4.6 mph - 0.01 in   Clear
3:55 AM 35.6 °F 31.7 °F 30.2 °F 81% 29.96 in 7.0 mi ESE 4.6 mph - 0.01 in   Mostly Cloudy
4:15 AM 35.6 °F 30.7 °F 30.2 °F 81% 29.96 in 7.0 mi ESE 5.8 mph - N/A   Overcast
4:35 AM 35.6 °F 31.7 °F 32.0 °F 87% 29.96 in 7.0 mi East 4.6 mph - 0.01 in Rain Light Rain
4:55 AM 35.6 °F 31.7 °F 32.0 °F 87% 29.95 in 7.0 mi ESE 4.6 mph - 0.01 in   Overcast
5:15 AM 35.6 °F 31.7 °F 32.0 °F 87% 29.96 in 7.0 mi ESE 4.6 mph - 0.01 in   Overcast
5:35 AM 35.6 °F 31.7 °F 32.0 °F 87% 29.95 in 7.0 mi East 4.6 mph - 0.01 in   Overcast
5:55 AM 35.6 °F 31.7 °F 32.0 °F 87% 29.95 in 7.0 mi East 4.6 mph - 0.01 in   Overcast
6:15 AM 35.6 °F 32.8 °F 32.0 °F 87% 29.95 in 7.0 mi East 3.5 mph - N/A   Overcast
6:35 AM 35.6 °F - 32.0 °F 87% 29.95 in 7.0 mi Calm Calm - N/A   Overcast
6:55 AM 35.6 °F - 32.0 °F 87% 29.95 in 7.0 mi Calm Calm - 0.01 in   Light Drizzle
7:15 AM 35.6 °F - 32.0 °F 87% 29.95 in 5.0 mi Calm Calm - N/A   Drizzle
7:35 AM 33.8 °F - 32.0 °F 93% 29.95 in 5.0 mi Calm Calm - 0.01 in Rain Rain
7:55 AM 33.8 °F - 32.0 °F 93% 29.95 in 3.0 mi Calm Calm - 0.01 in Rain Light Rain
8:15 AM 33.8 °F - 32.0 °F 93% 29.96 in 2.5 mi Calm Calm - 0.01 in Rain Light Rain
8:35 AM 33.8 °F - 32.0 °F 93% 29.97 in 1.8 mi Calm Calm - 0.02 in Rain Light Rain
8:55 AM 33.8 °F - 32.0 °F 93% 29.97 in 1.2 mi Calm Calm - 0.04 in Rain Light Rain
9:15 AM 33.8 °F - 32.0 °F 93% 29.97 in 1.0 mi Calm Calm - 0.03 in Rain Light Rain
9:35 AM 33.8 °F - 32.0 °F 93% 29.97 in 0.8 mi Calm Calm - 0.06 in Rain Rain
9:55 AM 33.8 °F 30.8 °F 32.0 °F 93% 29.97 in 1.0 mi SE 3.5 mph - 0.11 in Rain Light Rain
10:15 AM 33.8 °F 30.8 °F 32.0 °F 93% 29.97 in 0.8 mi NW 3.5 mph - 0.06 in Rain Light Rain
10:35 AM 33.8 °F - 33.8 °F 100% 29.98 in 1.2 mi Calm Calm - 0.09 in Rain Light Rain
10:55 AM 33.8 °F - 32.0 °F 93% 29.98 in 1.2 mi Calm Calm - 0.10 in Rain Light Rain
11:15 AM 33.8 °F - 33.8 °F 100% 29.98 in 0.8 mi Calm Calm - 0.02 in Rain Light Rain
11:35 AM 33.8 °F - 33.8 °F 100% 29.97 in 0.8 mi Calm Calm - 0.04 in Rain Light Rain
11:55 AM 33.8 °F - 33.8 °F 100% 29.96 in 0.5 mi Calm Calm - 0.05 in   Light Drizzle
12:15 PM 33.8 °F - 33.8 °F 100% 29.95 in 0.8 mi Calm Calm - 0.01 in Rain Rain
12:35 PM 33.8 °F - 33.8 °F 100% 29.94 in 1.0 mi Calm Calm - 0.02 in Rain Light Rain
12:55 PM 33.8 °F 29.6 °F 33.8 °F 100% 29.94 in 1.8 mi NW 4.6 mph - 0.03 in Rain Light Rain
1:15 PM 33.8 °F 27.7 °F 33.8 °F 100% 29.94 in 1.5 mi NNW 6.9 mph - 0.01 in Rain Light Rain
1:35 PM 33.8 °F 30.8 °F 33.8 °F 100% 29.94 in 1.5 mi NW 3.5 mph - 0.01 in Rain Light Rain
1:55 PM 33.8 °F 30.8 °F 33.8 °F 100% 29.93 in 1.8 mi NW 3.5 mph - 0.02 in Rain Light Rain
2:15 PM 33.8 °F 27.0 °F 32.0 °F 93% 29.93 in 2.5 mi NW 8.1 mph - 0.01 in Rain Light Rain
2:35 PM 33.8 °F 27.7 °F 32.0 °F 93% 29.93 in 1.8 mi NW 6.9 mph - 0.01 in Rain Light Rain
2:55 PM 33.8 °F 26.4 °F 32.0 °F 93% 29.94 in 1.5 mi NNW 9.2 mph - 0.02 in Rain Light Rain
3:15 PM 32.0 °F 26.4 °F 32.0 °F 100% 29.94 in 1.0 mi NNW 5.8 mph - N/A Snow Light Snow
3:35 PM 32.0 °F 28.7 °F 32.0 °F 100% 29.94 in 1.2 mi NW 3.5 mph - 0.01 in   Overcast
3:55 PM 32.0 °F 26.4 °F 32.0 °F 100% 29.94 in 1.0 mi NW 5.8 mph - 0.01 in Snow Light Snow
4:15 PM 32.0 °F 24.8 °F 32.0 °F 100% 29.95 in 0.8 mi NW 8.1 mph - 0.01 in Snow Light Snow
4:35 PM 32.0 °F 22.1 °F 32.0 °F 100% 29.97 in 1.0 mi NW 13.8 mph 18.4 mph 0.01 in Snow Light Snow
4:55 PM 32.0 °F 22.1 °F 30.2 °F 93% 29.98 in 1.5 mi NNW 13.8 mph - 0.01 in   Overcast
5:35 PM 32.0 °F 24.2 °F 28.4 °F 87% 29.99 in 3.0 mi NW 9.2 mph - N/A Snow Light Snow
6:15 PM 32.0 °F 23.6 °F 28.4 °F 87% 30.02 in 7.0 mi NNW 10.4 mph - N/A   Overcast
6:35 PM 32.0 °F 24.8 °F 28.4 °F 87% 30.04 in 7.0 mi NNW 8.1 mph - N/A   Overcast
6:55 PM 32.0 °F 24.2 °F 28.4 °F 87% 30.04 in 10.0 mi NNW 9.2 mph - N/A   Overcast
7:15 PM 32.0 °F 24.8 °F 26.6 °F 80% 30.05 in 10.0 mi NNW 8.1 mph - N/A   Overcast
7:35 PM 30.2 °F 22.6 °F 28.4 °F 93% 30.06 in 10.0 mi NNW 8.1 mph 17.3 mph N/A   Overcast
7:55 PM 30.2 °F 22.6 °F 26.6 °F 86% 30.06 in 10.0 mi NNW 8.1 mph - N/A   Overcast
8:15 PM 30.2 °F 21.9 °F 26.6 °F 86% 30.07 in 10.0 mi NNW 9.2 mph - N/A   Overcast
8:35 PM 30.2 °F 20.8 °F 26.6 °F 86% 30.08 in 10.0 mi NNW 11.5 mph - N/A   Overcast
8:55 PM 30.2 °F 21.3 °F 26.6 °F 86% 30.09 in 10.0 mi NNW 10.4 mph 18.4 mph N/A   Overcast
9:15 PM 30.2 °F 21.9 °F 26.6 °F 86% 30.10 in 10.0 mi NNW 9.2 mph - N/A   Overcast
9:35 PM 30.2 °F 21.9 °F 24.8 °F 80% 30.10 in 10.0 mi NNW 9.2 mph - N/A   Overcast
9:55 PM 30.2 °F 22.6 °F 24.8 °F 80% 30.11 in 10.0 mi NNW 8.1 mph - N/A   Overcast
10:15 PM 30.2 °F 21.3 °F 24.8 °F 80% 30.12 in 10.0 mi NNW 10.4 mph - N/A   Overcast
10:35 PM 30.2 °F 21.3 °F 24.8 °F 80% 30.12 in 10.0 mi NNW 10.4 mph - N/A   Overcast
10:55 PM 28.4 °F 19.1 °F 24.8 °F 86% 30.12 in 10.0 mi NNW 10.4 mph - N/A   Overcast
11:15 PM 28.4 °F 20.4 °F 24.8 °F 86% 30.13 in 10.0 mi NNW 8.1 mph 16.1 mph N/A   Overcast
11:35 PM 28.4 °F 20.4 °F 24.8 °F 86% 30.13 in 10.0 mi North 8.1 mph - N/A   Overcast
11:55 PM 28.4 °F 20.4 °F 24.8 °F 86% 30.15 in 10.0 mi North 8.1 mph - N/A   Overcast